Regional Weather Roundup
Issued by NWS Glasgow, MT

Home | Current Version | Previous Version | Text Only | Print | Product List | Glossary On
Versions: 1 2 3 4 5 6 7 8 9 10 11 12 13 14 15 16 17 18 19 20 21 22 23 24 25 26 27 28 29 30 31 32 33 34 35 36 37 38 39 40 41 42 43 44 45 46 47 48 49
000
ASUS45 KGGW 271615
RWRGGW
HOURLY WEATHER ROUNDUP FOR NORTHEAST MONTANA
NATIONAL WEATHER SERVICE GLASGOW MONTANA
1000 AM MDT WED AUG 27 2014

NOTE: "FAIR" INDICATES FEW OR NO CLOUDS BELOW 12,000 FEET WITH NO
SIGNIFICANT WEATHER AND/OR OBSTRUCTIONS TO VISISBILITY.

NORTHEAST MONTANA


CITY           SKY/WX    TMP DP  RH WIND       PRES   REMARKS
GLASGOW        SUNNY     67  55  65 SE10      30.01F
PLENTYWOOD       N/A     66  56  70 S9          N/A
WOLF POINT     SUNNY     67  55  65 E6        30.05F
JORDAN           N/A     72  54  53 VRB5      30.04F
WINNETT          N/A     73  52  47 E1          N/A
SIDNEY         SUNNY     64  59  82 S7        30.10F
GLENDIVE       SUNNY     64  57  77 SE6       30.11F
MALTA            N/A     71  57  61 CALM        N/A
SCOBEY           N/A     66  51  58 SE9       30.03F

FORT PECK REPORTS


CITY           SKY/WX    TMP DP  RH WIND       PRES   REMARKS
FORT PECK        N/A     68  56  65 SE12        N/A
THE PINES        N/A     73  52  47 S6          N/A

SOUTHEAST MONTANA


CITY           SKY/WX    TMP DP  RH WIND       PRES   REMARKS
BILLINGS       MOSUNNY   64  51  62 SW9       30.11F
MILES CITY     SUNNY     69  57  65 S12       30.08F
BAKER          SUNNY     69  57  65 SE12      30.14F
LIVINGSTON     SUNNY     70  42  36 W17       30.16F

CENTRAL MONTANA


CITY           SKY/WX    TMP DP  RH WIND       PRES   REMARKS
HAVRE          SUNNY     72  48  42 SW15      30.00F
LEWISTOWN      SUNNY     70  49  47 VRB3      30.11S
GREAT FALLS    SUNNY     70  46  42 SW16G22   30.07F
CUT BANK       SUNNY     75  48  38 W14       30.05F
HELENA         SUNNY     63  47  55 NE3       30.16F
BUTTE          SUNNY     56  43  61 CALM      30.25F
BOZEMAN        SUNNY     62  48  60 SE3       30.19F

WESTERN MONTANA


CITY           SKY/WX    TMP DP  RH WIND       PRES   REMARKS
MISSOULA       SUNNY     60  47  61 SE5       30.19F
KALISPELL      NOT AVBL

NORTH DAKOTA


CITY           SKY/WX    TMP DP  RH WIND       PRES   REMARKS
WILLISTON      SUNNY     65  56  72 SE8       30.10S
DICKINSON      SUNNY     66  57  72 S10       30.14S
MINOT          SUNNY     67  55  65 S8        30.12F
BISMARCK       SUNNY     62  56  80 S3        30.18S

SOUTHERN SASKATCHEWAN


CITY           SKY/WX    TMP DP  RH WIND       PRES   REMARKS
REGINA         SUNNY     66  55  68 SE8       30.00F
MOOSE JAW      SUNNY     73  52  46 S9        29.98F
ESTEVAN        SUNNY     70  59  68 S8        30.08F
SWIFT CURRENT  SUNNY     73  48  40 SW15G23   29.94F



USA.gov is the U.S. government's official web portal to all federal, state and local government web resources and services.